DW6005 Weather Reports


time (UTC)temp
F
wind
direction
speed
knots
gust
knots
rain 1hr
in
rain 24hr
in
rain mn
in
humidity
%
barometer
mb
20260510210028 69 308 1.7 2.6 0.00 0.00 0.00 61 1012.3
20260510204522 70 255 1.7 3.5 0.00 0.00 0.00 59 1012.2
20260510203022 70 182 0.9 4.3 0.00 0.00 0.00 59 1012.0
20260510201521 70 146 0.9 3.5 0.00 0.00 0.00 58 1011.6
20260510200022 71 146 0.0 2.6 0.00 0.00 0.00 57 1011.3
20260510194523 71 146 0.0 0.9 0.00 0.00 0.00 56 1011.2
20260510193020 72 146 0.0 0.9 0.00 0.00 0.00 55 1010.9
20260510191535 73 146 0.0 0.9 0.00 0.00 0.00 53 1010.8
20260510190020 73 146 0.0 1.7 0.00 0.00 0.00 51 1010.5
20260510184517 74 146 0.0 1.7 0.00 0.00 0.00 50 1010.3
20260510183017 75 144 0.9 3.5 0.00 0.00 0.00 48 1010.4
20260510181516 75 186 0.9 3.5 0.00 0.00 0.00 47 1010.0
20260510180016 75 163 2.6 8.7 0.00 0.00 0.00 47 1010.1
20260510174515 76 205 4.3 9.6 0.00 0.00 0.00 46 1010.0
20260510173015 76 210 2.6 13.0 0.00 0.00 0.00 46 1010.0
20260510171515 77 146 2.6 9.6 0.00 0.00 0.00 45 1010.0
20260510170013 78 167 3.5 10.4 0.00 0.00 0.00 44 1010.1
20260510164519 78 190 3.5 11.3 0.00 0.00 0.00 45 1010.0
20260510163013 78 169 4.3 8.7 0.00 0.00 0.00 45 1010.0
20260510161511 79 180 2.6 9.6 0.00 0.00 0.00 44 1010.0
20260510160012 78 186 2.6 12.2 0.00 0.00 0.00 45 1010.2
20260510154507 79 248 3.5 12.2 0.00 0.00 0.00 44 1010.1
20260510153012 78 125 4.3 13.9 0.00 0.00 0.00 44 1010.2
20260510151505 78 192 2.6 12.2 0.00 0.00 0.00 46 1010.3
20260510150111 78 218 3.5 15.6 0.00 0.00 0.00 45 1010.6
20260510144616 79 234 3.5 13.9 0.00 0.00 0.00 46 1010.6
20260510143059 79 172 3.5 12.2 0.00 0.00 0.00 45 1010.8
20260510141556 79 188 5.2 10.4 0.00 0.00 0.00 44 1010.9
20260510140054 79 132 3.5 16.5 0.00 0.00 0.00 44 1010.9
20260510134554 79 184 4.3 13.9 0.00 0.00 0.00 45 1011.2
20260510133050 79 236 3.5 10.4 0.00 0.00 0.00 46 1011.3
20260510131548 78 242 5.2 13.0 0.00 0.00 0.00 46 1011.6
20260510130046 78 182 7.8 15.6 0.00 0.00 0.00 46 1011.7
20260510124557 79 220 4.3 14.8 0.00 0.00 0.00 47 1011.8
20260510123041 77 259 3.5 12.2 0.00 0.00 0.00 50 1012.1
20260510121540 77 250 4.3 13.9 0.00 0.00 0.00 49 1012.1
20260510120038 77 165 3.5 10.4 0.00 0.00 0.00 48 1012.4
20260510114535 76 232 1.7 6.1 0.00 0.00 0.00 51 1012.6
20260510113032 76 207 0.0 7.0 0.00 0.00 0.00 50 1012.7
20260510111530 76 288 1.7 6.1 0.00 0.00 0.00 51 1013.0
20260510110035 76 298 0.0 3.5 0.00 0.00 0.00 53 1013.3
20260510104524 75 149 1.7 7.8 0.00 0.00 0.00 55 1013.4
20260510103022 73 101 1.7 6.1 0.00 0.00 0.00 62 1013.5
20260510101516 72 112 3.5 7.8 0.00 0.00 0.00 62 1013.7
20260510100015 71 120 3.5 7.8 0.00 0.00 0.00 63 1013.8
20260510094525 70 111 2.6 7.0 0.00 0.08 0.00 66 1013.8
20260510093010 69 106 0.9 6.1 0.00 0.08 0.00 66 1014.0
20260510091503 68 61 2.6 4.3 0.00 0.08 0.00 68 1014.1
20260510090059 68 90 0.9 3.5 0.00 0.08 0.00 71 1014.2
20260510084559 67 90 0.9 3.5 0.00 0.10 0.00 70 1014.4
20260510083048 66 89 0.0 1.7 0.00 0.10 0.00 75 1014.5
20260510081544 65 89 0.0 2.6 0.00 0.10 0.00 76 1014.6
20260510080041 64 89 0.0 1.7 0.00 0.10 0.00 79 1014.6
20260510074535 63 89 0.0 2.6 0.00 0.11 0.00 80 1014.6
20260510073041 62 65 0.0 0.9 0.00 0.11 0.00 83 1014.7
20260510071529 60 65 0.0 0.9 0.00 0.11 0.00 85 1014.9
20260510070030 59 65 0.0 1.7 0.00 0.11 0.00 86 1014.8
20260510064523 58 65 0.0 2.6 0.00 0.13 0.00 88 1014.7
20260510063023 58 65 0.0 0.9 0.00 0.13 0.00 88 1014.7
20260510061519 57 65 0.0 0.0 0.00 0.13 0.00 88 1014.5
20260510060015 56 65 0.0 0.0 0.00 0.13 0.00 88 1014.4
20260510054512 56 65 0.0 0.0 0.00 0.13 0.00 88 1014.4
20260510053033 56 65 0.0 0.0 0.00 0.13 0.00 88 1014.2
20260510051508 55 65 0.0 0.0 0.00 0.13 0.00 88 1014.1
20260510050005 56 65 0.0 0.0 0.00 0.13 0.00 88 1014.1
20260510044505 56 66 0.0 0.0 0.00 0.13 0.00 88 1014.1
20260510043004 55 66 0.0 0.0 0.00 0.13 0.00 88 1014.1
20260510041505 56 66 0.0 0.0 0.00 0.13 0.00 88 1014.1
20260510040000 56 66 0.0 0.9 0.00 0.13 0.00 88 1013.9
20260510034600 56 66 0.0 0.0 0.00 0.13 0.00 87 1013.9
20260510033113 56 66 0.0 1.7 0.00 0.13 0.00 87 1013.9
20260510031558 56 66 0.0 0.9 0.00 0.13 0.00 87 1013.9
20260510024601 56 65 0.0 0.0 0.00 0.13 0.00 86 1013.8
20260510023054 57 65 0.0 0.9 0.00 0.13 0.00 86 1013.6
20260510021557 57 65 0.0 0.0 0.00 0.13 0.00 86 1013.6
20260510020055 57 65 0.0 0.9 0.00 0.13 0.00 86 1013.7
20260510014551 57 64 0.9 2.6 0.00 0.13 0.00 85 1013.7
20260510013052 58 64 0.0 0.0 0.00 0.13 0.00 85 1013.6
20260510011552 58 64 0.0 0.9 0.00 0.13 0.00 84 1013.5
20260510010047 58 64 0.0 0.0 0.00 0.13 0.00 84 1013.5
20260510004545 58 64 0.0 2.6 0.00 0.13 0.00 83 1013.6
20260510003043 59 63 0.0 0.0 0.00 0.13 0.00 83 1013.9
20260510001543 59 63 0.0 0.9 0.00 0.13 0.00 83 1014.0
20260510000047 59 63 0.0 0.0 0.00 0.13 0.00 82 1014.0
20260509234538 59 63 0.0 5.2 0.00 0.13 0.00 82 1013.9
20260509233036 59 27 0.9 5.2 0.00 0.13 0.00 82 1014.0
20260509231539 60 5 0.9 5.2 0.00 0.13 0.00 82 1014.1
20260509230035 60 192 0.0 0.0 0.00 0.13 0.00 82 1014.1
20260509224532 60 192 0.0 0.0 0.00 0.13 0.00 82 1014.2
20260509223031 60 193 0.0 0.9 0.00 0.13 0.00 81 1014.1
20260509221529 61 192 0.0 0.0 0.00 0.13 0.00 81 1014.2
20260509220026 61 193 0.0 0.0 0.00 0.13 0.00 80 1014.2
20260509214525 61 192 0.0 0.0 0.00 0.13 0.13 80 1014.0
20260509213031 62 193 0.0 0.0 0.00 0.13 0.13 79 1013.8
20260509211523 62 193 0.0 0.0 0.00 0.13 0.13 78 1013.8